This demonstration page uses our WeatherBlox Daily Observations layout. Learn more.

Left ArrowRight Arrow

Hourly Observations for October 6, 2015

Temp ( °F °C ) Dew Point ( °F °C ) Humidity (%) Winds ( mph kmh ) Pressure ( in mb ) Visibility ( mi km ) Precip ( " mm )
12:51 am 00:51 Partly Cloudy 61 16.1 57 13.9 87 87 Calm 29.95 1014 10 16 0.00 0.00
1:51 am 01:51 Partly Cloudy 61 16.1 57 13.9 87 87 NNE 9 15 29.94 1014 10 16 0.00 0.00
2:51 am 02:51 Clear 61 16.1 56 13.3 84 84 ESE 5 7 29.93 1014 10 16 0.00 0.00
3:51 am 03:51 Partly Cloudy 61 16.1 55 12.8 81 81 E 6 9 29.93 1014 10 16 0.00 0.00
4:51 am 04:51 Partly Cloudy 61 16.1 55 12.8 81 81 SE 8 13 29.95 1014 10 16 0.00 0.00
5:51 am 05:51 Clear 60 15.6 55 12.8 84 84 E 9 15 29.98 1015 10 16 0.00 0.00
6:51 am 06:51 Partly Cloudy 64 17.8 55 12.8 73 73 ESE 10 17 29.98 1015 10 16 0.00 0.00
7:51 am 07:51 Sunny 68 20 55 12.8 63 63 SE 9 15 30.00 1016 10 16 0.00 0.00
8:51 am 08:51 Sunny 71 21.7 55 12.8 57 57 ESE 10 17 30.01 1016 10 16 0.00 0.00
9:51 am 09:51 Sunny 73 22.8 55 12.8 53 53 ESE 9 15 30.01 1016 10 16 0.00 0.00
10:48 am 10:48 Sunny with Nearby Thunderstorms 73 23 55 13 53 53 SE 7 11 29.91 1013 10 16 0.00 0.00
10:51 am 10:51 Sunny with Nearby Thunderstorms 73 22.8 55 12.8 53 53 SE 7 11 29.98 1015 10 16 0.00 0.00
11:39 am 11:39 Sunny 73 23 55 13 53 53 SE 8 13 29.91 1013 10 16 0.00 0.00
11:51 am 11:51 Sunny 75 23.9 56 13.3 52 52 ESE 6 9 29.96 1015 10 16 0.00 0.00
12:51 pm 12:51 Sunny 80 26.7 51 10.6 37 37 ESE 10 17 29.90 1012 10 16 0.00 0.00
1:49 pm 13:49 Mostly Cloudy with Nearby Thunderstorms 79 26 52 11 39 39 ESE 13 20 29.77 1008 10 16 0.00 0.00
1:51 pm 13:51 Mostly Cloudy with Thunderstorms 77 25 51 10.6 40 40 E 10 17 29.86 1011 10 16 0.00 0.00
2:17 pm 14:17 Mostly Cloudy with Thunderstorms 68 20 57 13.9 68 68 SSE 14 22 29.83 1010 10 16 0.01 0.25
2:43 pm 14:43 Cloudy with Nearby Thunderstorms 69 20.6 58 14.4 68 68 WNW 5 7 29.83 1010 8 13 0.01 0.25
2:51 pm 14:51 Mostly Cloudy with Nearby Thunderstorms 69 20.6 60 15.6 73 73 NW 10 17 29.87 1012 10 16 0.02 0.51
3:01 pm 15:01 Partly Cloudy 70 21.1 59 15 68 68 NW 6 9 29.83 1010 10 16 0.00 0.03
3:17 pm 15:17 Partly Cloudy with Nearby Thunderstorms 71 21.7 57 13.9 61 61 NNE 3 6 29.80 1009 10 16 0.00 0.03
3:51 pm 15:51 Partly Cloudy 70 21.1 56 13.3 61 61 NW 13 20 29.88 1012 10 16 0.00 0.03
4:04 pm 16:04 Mostly Sunny 70 21.1 55 12.8 59 59 WNW 17 28 29.83 1010 10 16 0.00 0.00
4:51 pm 16:51 Mostly Sunny 70 21.1 56 13.3 61 61 W 13 20 29.90 1012 10 16 0.00 0.00
5:51 pm 17:51 Cloudy 67 19.4 55 12.8 66 66 W 12 19 29.92 1013 10 16 0.00 0.03
6:51 pm 18:51 Mostly Cloudy with Light Rain 64 17.8 57 13.9 78 78 NNW 6 9 29.92 1013 10 16 0.00 0.03
7:51 pm 19:51 Cloudy 64 17.8 57 13.9 78 78 W 6 9 29.95 1014 10 16 0.00 0.03
8:51 pm 20:51 Mostly Cloudy 63 17.2 58 14.4 84 84 Calm 29.95 1014 10 16 0.00 0.00
9:51 pm 21:51 Mostly Cloudy 63 17.2 57 13.9 81 81 WNW 8 13 29.95 1014 10 16 0.00 0.00
10:51 pm 22:51 Partly Cloudy with Nearby Thunderstorms 63 17.2 56 13.3 78 78 WNW 9 15 29.95 1014 10 16 0.00 0.00
11:09 pm 23:09 Mostly Cloudy with Thunderstorms 61 16.1 58 14.4 90 90 NNW 8 13 29.97 1015 10 16 0.00 0.03
11:46 pm 23:46 Partly Cloudy with Nearby Thunderstorms 61 16 57 14 88 88 WNW 8 13 29.94 1014 10 16 0.01 0.25
11:51 pm 23:51 Mostly Clear with Nearby Thunderstorms 60 15.6 58 14.4 93 93 WNW 8 13 29.93 1014 10 16 0.01 0.25

Powered by AerisWeather